Date String (YYYY-MM-DD hh:mm:ss) UTC,Instrument flags,Ambient pressure (hPa),Sample flow (lpm),Bypass flow (lpm),Sample temperature (°C),Ambient temperature (°C),ASC tube jacket temperature (°C),LED temperature (°C),Box temperature (°C),Sample RH (%),Span deviation,Mass concentration (μg/m³),Mass concentration (μg/m³),Mass concentration (μg/m³)
DateTimeUTC,F1_M11,P_M11,Q1_M11,Q2_M11,T1_M11,T2_M11,T3_M11,T4_M11,T5_M11,U1_M11,ZSPAN_M11,X0_M11,X2_M11,X1_M11
2022-09-03 06:00:00,,0835.6,5.01,0.00,29.8,28.6,00.0,38.6,31.7,20.4,0000.0,0005.49,0003.09,0002.49
2022-09-03 06:01:00,,0835.6,4.99,0.00,29.8,28.7,00.0,38.6,31.7,20.3,0000.0,0005.77,0003.09,0002.48
2022-09-03 06:02:00,,0835.7,5.01,0.00,29.9,28.8,00.0,38.6,31.7,20.2,0000.0,0005.86,0003.11,0002.48
2022-09-03 06:03:00,,0835.6,4.99,0.00,29.9,28.8,00.0,38.6,31.8,20.3,0000.0,0005.78,0003.07,0002.47
2022-09-03 06:04:00,,0835.6,5.00,0.00,29.9,28.9,00.0,38.7,31.7,20.4,0000.0,0005.70,0003.04,0002.48
2022-09-03 06:05:00,,0835.6,5.00,0.00,29.9,28.9,00.0,38.7,31.8,20.3,0000.0,0005.81,0003.04,0002.48
2022-09-03 06:06:00,,0835.7,4.99,0.00,30.0,29.0,00.0,38.7,31.8,20.2,0000.0,0006.33,0003.03,0002.47
2022-09-03 06:07:00,,0835.6,5.01,0.00,30.0,29.0,00.0,38.7,31.9,20.4,0000.0,0006.12,0003.02,0002.48
2022-09-03 06:08:00,,0835.6,4.99,0.00,30.0,28.2,00.0,38.7,31.8,20.5,0000.0,0006.22,0003.07,0002.51
2022-09-03 06:09:00,,0835.6,4.99,0.00,29.9,27.1,00.0,38.7,31.7,20.6,0000.0,0006.26,0003.11,0002.53
2022-09-03 06:10:00,,0835.6,5.01,0.00,29.9,27.0,00.0,38.6,31.7,20.6,0000.0,0006.28,0003.14,0002.55
2022-09-03 06:11:00,,0835.6,5.00,0.00,29.8,27.2,00.0,38.6,31.5,20.8,0000.0,0006.28,0003.16,0002.58
2022-09-03 06:12:00,,0835.6,5.00,0.00,29.8,27.5,00.0,38.6,31.5,21.1,0000.0,0005.97,0003.20,0002.63
2022-09-03 06:13:00,,0835.7,5.01,0.00,29.8,27.8,00.0,38.6,31.5,21.2,0000.0,0006.27,0003.26,0002.68
2022-09-03 06:14:00,,0835.7,5.00,0.00,29.8,28.0,00.0,38.6,31.5,21.2,0000.0,0006.39,0003.29,0002.70
2022-09-03 06:15:00,,0835.6,5.01,0.00,29.8,28.2,00.0,38.6,31.5,21.3,0000.0,0006.74,0003.34,0002.73
2022-09-03 06:16:00,,0835.6,5.00,0.00,29.8,28.3,00.0,38.6,31.6,21.3,0000.0,0006.95,0003.38,0002.76
2022-09-03 06:17:00,,0835.6,4.99,0.00,29.8,28.4,00.0,38.5,31.6,21.4,0000.0,0006.32,0003.39,0002.79
2022-09-03 06:18:00,,0835.6,5.00,0.00,29.8,28.5,00.0,38.6,31.6,21.3,0000.0,0006.02,0003.39,0002.82
2022-09-03 06:19:00,,0835.6,5.01,0.00,29.8,28.6,00.0,38.6,31.6,21.1,0000.0,0006.34,0003.42,0002.85
2022-09-03 06:20:00,,0835.6,4.99,0.00,29.8,28.7,00.0,38.6,31.7,21.1,0000.0,0006.57,0003.44,0002.88
2022-09-03 06:21:00,,0835.6,5.01,0.00,29.8,28.7,00.0,38.6,31.7,21.1,0000.0,0007.20,0003.49,0002.92
2022-09-03 06:22:00,,0835.6,4.99,0.00,29.9,28.8,00.0,38.6,31.7,21.1,0000.0,0007.38,0003.53,0002.97
2022-09-03 06:23:00,,0835.6,5.00,0.00,29.9,28.8,00.0,38.6,31.7,21.1,0000.0,0007.44,0003.56,0003.01
2022-09-03 06:24:00,,0835.6,5.00,0.00,29.9,28.9,00.0,38.6,31.7,21.0,0000.0,0007.32,0003.54,0003.01
2022-09-03 06:25:00,,0835.6,4.99,0.00,29.9,28.9,00.0,38.7,31.8,20.9,0000.0,0007.13,0003.52,0003.04
2022-09-03 06:26:00,,0835.5,5.01,0.00,30.0,29.0,00.0,38.7,31.8,20.7,0000.0,0006.93,0003.52,0003.06
2022-09-03 06:27:00,,0835.6,4.98,0.00,30.0,29.0,00.0,38.7,31.8,20.6,0000.0,0006.90,0003.52,0003.08
2022-09-03 06:28:00,,0835.5,5.01,0.00,30.0,29.0,00.0,38.7,31.8,20.7,0000.0,0006.81,0003.52,0003.08
2022-09-03 06:29:00,,0835.5,4.99,0.00,30.0,29.0,00.0,38.7,31.9,20.6,0000.0,0006.85,0003.55,0003.10
2022-09-03 06:30:00,,0835.5,5.00,0.00,30.0,28.7,00.0,38.7,31.9,20.4,0000.0,0006.50,0003.52,0003.08
2022-09-03 06:31:00,,0835.5,5.00,0.00,30.0,27.4,00.0,38.7,31.8,20.3,0000.0,0006.03,0003.48,0003.07
2022-09-03 06:32:00,,0835.5,4.99,0.00,30.0,26.9,00.0,38.7,31.7,20.3,0000.0,0005.32,0003.44,0003.05
2022-09-03 06:33:00,,0835.5,5.00,0.00,29.9,27.1,00.0,38.6,31.5,20.3,0000.0,0005.09,0003.40,0003.02
2022-09-03 06:34:00,,0835.5,5.01,0.00,29.8,27.3,00.0,38.6,31.5,20.4,0000.0,0005.02,0003.35,0002.98
2022-09-03 06:35:00,,0835.5,4.99,0.00,29.8,27.6,00.0,38.6,31.5,20.5,0000.0,0004.92,0003.33,0002.97
2022-09-03 06:36:00,,0835.4,5.00,0.00,29.8,27.9,00.0,38.6,31.5,20.6,0000.0,0004.93,0003.31,0002.94
2022-09-03 06:37:00,,0835.4,5.00,0.00,29.8,28.1,00.0,38.6,31.5,20.6,0000.0,0004.86,0003.27,0002.91
2022-09-03 06:38:00,,0835.4,5.00,0.00,29.8,28.2,00.0,38.6,31.5,20.5,0000.0,0004.72,0003.25,0002.90
2022-09-03 06:39:00,,0835.4,5.01,0.00,29.8,28.4,00.0,38.6,31.5,20.4,0000.0,0004.75,0003.25,0002.90
2022-09-03 06:40:00,,0835.3,5.01,0.00,29.8,28.4,00.0,38.6,31.6,20.4,0000.0,0005.02,0003.23,0002.88
2022-09-03 06:41:00,,0835.3,4.98,0.00,29.8,28.5,00.0,38.6,31.6,20.3,0000.0,0005.02,0003.22,0002.87
2022-09-03 06:42:00,,0835.4,5.00,0.00,29.8,28.6,00.0,38.6,31.6,20.3,0000.0,0005.07,0003.23,0002.87
2022-09-03 06:43:00,,0835.4,5.01,0.00,29.8,28.7,00.0,38.6,31.7,20.3,0000.0,0005.15,0003.25,0002.86
2022-09-03 06:44:00,,0835.3,4.99,0.00,29.9,28.8,00.0,38.6,31.8,20.3,0000.0,0005.12,0003.27,0002.86
2022-09-03 06:45:00,,0835.3,5.01,0.00,29.9,28.8,00.0,38.6,31.8,20.2,0000.0,0005.03,0003.28,0002.86
2022-09-03 06:46:00,,0835.3,4.99,0.00,29.9,28.9,00.0,38.6,31.8,20.2,0000.0,0004.98,0003.27,0002.86
2022-09-03 06:47:00,,0835.3,5.01,0.00,29.9,28.9,00.0,38.7,31.8,20.2,0000.0,0004.99,0003.28,0002.86
2022-09-03 06:48:00,,0835.3,4.99,0.00,30.0,29.0,00.0,38.7,31.9,20.2,0000.0,0004.99,0003.30,0002.86
2022-09-03 06:49:00,,0835.3,5.01,0.00,30.0,29.0,00.0,38.7,31.9,20.2,0000.0,0005.91,0003.32,0002.87
2022-09-03 06:50:00,,0835.3,4.99,0.00,30.0,29.0,00.0,38.7,31.9,20.1,0000.0,0006.77,0003.33,0002.88
2022-09-03 06:51:00,,0835.2,5.01,0.00,30.0,29.1,00.0,38.8,31.9,20.1,0000.0,0006.49,0003.34,0002.90
2022-09-03 06:52:00,,0835.2,4.99,0.00,30.1,29.0,00.0,38.8,31.9,20.1,0000.0,0006.59,0003.35,0002.90
2022-09-03 06:53:00,,0835.2,5.01,0.00,30.1,27.8,00.0,38.8,31.9,20.0,0000.0,0006.61,0003.34,0002.90
2022-09-03 06:54:00,,0835.2,4.99,0.00,30.0,26.9,00.0,38.7,31.8,20.1,0000.0,0006.49,0003.31,0002.91
2022-09-03 06:55:00,,0835.2,5.00,0.00,29.9,26.9,00.0,38.7,31.6,20.2,0000.0,0006.32,0003.27,0002.89
2022-09-03 06:56:00,,0835.2,5.01,0.00,29.9,27.2,00.0,38.7,31.5,20.3,0000.0,0006.27,0003.26,0002.89
2022-09-03 06:57:00,,0835.2,5.01,0.00,29.8,27.5,00.0,38.6,31.5,20.3,0000.0,0006.36,0003.28,0002.88
2022-09-03 06:58:00,,0835.1,5.00,0.00,29.8,27.8,00.0,38.6,31.5,20.3,0000.0,0006.41,0003.28,0002.87
2022-09-03 06:59:00,,0835.2,5.00,0.00,29.8,28.0,00.0,38.6,31.5,20.3,0000.0,0007.04,0003.28,0002.86
